Shreveport, LA

6:28 AM CDT on October 20, 2017 (GMT -0500)
Shreveport Regional

Weather History for KSHV - April, 2013

Change the Weather History Date:

Thursday, April 4, 2013

  Actual Average Record
Temperature  
Mean Temperature 45 °F 62 °F  
Max Temperature 48 °F 74 °F 92 °F (1880)
Min Temperature 42 °F 50 °F 31 °F (1987)
Degree Days  
Heating Degree Days 20 5  
Month to date heating degree days 41 20  
Since 1 July heating degree days 1961 2153  
Cooling Degree Days 0 2  
Month to date cooling degree days 0 8  
Year to date cooling degree days 25 49  
Moisture  
Dew Point 41 °F    
Average Humidity 88    
Maximum Humidity 96    
Minimum Humidity 80    
Precipitation  
Precipitation 0.01 in 0.14 in 5.15 in (1999)
Month to date precipitation 0.39 0.56  
Year to date precipitation 11.41 13.65  
Snow  
Snow 0.00 in - - ()
Month to date snowfall 0.0  
Since 1 July snowfall 0.1  
Snow Depth 0.00 in    
Sea Level Pressure  
Sea Level Pressure 30.08 in    
Wind  
Wind Speed 8 mph (NNW)    
Max Wind Speed 23 mph    
Max Gust Speed 79 mph    
Visibility 8 miles    
Events Rain    
T = Trace of Precipitation, MM = Missing Value Source: NWS Daily Summary

Daily Weather History Graph

Daily Weather History Graph

Search for Another Location

Airport or City:

Trip Planner

Search our weather history database for the weather conditions in past years. The results will help you decide how hot, cold, wet, or windy it might be!

Date:

Astronomy

Apr. 04, 2013 Rise Set
Actual Time 6:59 AM CDT 7:37 PM CDT
Civil Twilight 6:34 AM CDT 8:02 PM CDT
Nautical Twilight 6:05 AM CDT 8:31 PM CDT
Astronomical Twilight 5:35 AM CDT 9:01 PM CDT
Moon 3:07 AM CDT (4/4) 2:14 PM CDT (4/4)
Length of Visible Light 13h 27m
Length of Day
12h 38m
Waning Crescent, 33% of the Moon is Illuminated
Apr 4
Waning Crescent
Apr 10
New
Apr 18
First Quarter
Apr 25
Full
May 2
Last Quarter

Hourly Weather History & Observations

Time (CDT) Temp. Windchill Dew Point Humidity Pressure Visibility Wind Dir Wind Speed Gust Speed Precip Events Conditions
12:13 AM 42.8 °F 38.0 °F 39.2 °F 87% 30.12 in 7.0 mi NNE 8.1 mph - N/A   Overcast
12:31 AM 42.8 °F 38.6 °F 39.2 °F 87% 30.11 in 7.0 mi NNE 6.9 mph - N/A   Overcast
12:42 AM 42.8 °F 37.5 °F 41.0 °F 93% 30.10 in 7.0 mi North 9.2 mph - N/A   Overcast
12:56 AM 43.0 °F 38.2 °F 41.0 °F 93% 30.10 in 7.0 mi North 8.1 mph - N/A   Overcast
1:35 AM 42.8 °F 37.0 °F 39.2 °F 87% 30.09 in 10.0 mi NNE 10.4 mph - N/A   Overcast
1:56 AM 42.1 °F 36.6 °F 39.9 °F 92% 30.08 in 7.0 mi NE 9.2 mph - 0.00 in   Overcast
2:03 AM 42.8 °F 35.4 °F 39.2 °F 87% 30.08 in 6.0 mi NNE 15.0 mph 79.4 mph N/A   Overcast
2:31 AM 42.8 °F 39.3 °F 39.2 °F 87% 30.06 in 10.0 mi NNE 5.8 mph - 0.00 in   Overcast
2:56 AM 42.1 °F 37.7 °F 39.9 °F 92% 30.07 in 7.0 mi North 6.9 mph - 0.01 in Rain Light Rain
3:06 AM 42.8 °F 40.1 °F 39.2 °F 87% 30.06 in 7.0 mi North 4.6 mph - 0.00 in Rain Light Rain
3:49 AM 42.8 °F 38.0 °F 39.2 °F 87% 30.04 in 7.0 mi North 8.1 mph - 0.00 in   Overcast
3:56 AM 43.0 °F 38.2 °F 39.9 °F 89% 30.04 in 7.0 mi North 8.1 mph - 0.00 in   Overcast
4:29 AM 42.8 °F 38.6 °F 39.2 °F 87% 30.04 in 10.0 mi NNW 6.9 mph - N/A   Overcast
4:56 AM 43.0 °F 38.8 °F 39.9 °F 89% 30.04 in 10.0 mi NNW 6.9 mph - 0.00 in Rain Light Rain
5:56 AM 43.0 °F 38.2 °F 39.9 °F 89% 30.05 in 10.0 mi NNW 8.1 mph - 0.00 in   Overcast
6:56 AM 43.0 °F 37.7 °F 39.9 °F 89% 30.06 in 10.0 mi NNW 9.2 mph - N/A   Overcast
7:26 AM 42.8 °F 37.5 °F 39.2 °F 87% 30.07 in 10.0 mi North 9.2 mph - N/A   Overcast
7:56 AM 43.0 °F 37.2 °F 39.9 °F 89% 30.08 in 7.0 mi NNW 10.4 mph - N/A   Overcast
8:56 AM 43.0 °F 37.7 °F 41.0 °F 93% 30.09 in 5.0 mi NNW 9.2 mph - N/A   Overcast
9:56 AM 44.1 °F 39.5 °F 41.0 °F 89% 30.10 in 7.0 mi North 8.1 mph - N/A   Overcast
10:56 AM 46.0 °F 43.1 °F 41.0 °F 83% 30.11 in 8.0 mi North 5.8 mph - N/A   Overcast
11:56 AM 46.0 °F 42.5 °F 41.0 °F 83% 30.11 in 7.0 mi NNW 6.9 mph - N/A   Overcast
12:56 PM 46.0 °F 41.4 °F 41.0 °F 83% 30.11 in 9.0 mi NNW 9.2 mph - N/A   Overcast
1:56 PM 46.9 °F - 41.0 °F 80% 30.09 in 10.0 mi NW 11.5 mph - N/A   Overcast
2:41 PM 46.4 °F 41.9 °F 42.8 °F 87% 30.09 in 4.0 mi NW 9.2 mph - 0.00 in Rain Light Rain
2:53 PM 46.4 °F 41.9 °F 42.8 °F 87% 30.08 in 2.5 mi NW 9.2 mph - 0.00 in   Overcast
2:56 PM 46.0 °F 41.0 °F 43.0 °F 89% 30.08 in 2.5 mi NW 10.4 mph - 0.00 in   Overcast
3:03 PM 46.4 °F 41.1 °F 42.8 °F 87% 30.08 in 2.5 mi NW 11.5 mph - N/A   Overcast
3:16 PM 46.4 °F 41.5 °F 42.8 °F 87% 30.08 in 3.0 mi NW 10.4 mph - N/A   Overcast
3:56 PM 46.9 °F - 42.1 °F 83% 30.07 in 7.0 mi WNW 8.1 mph - 0.00 in   Overcast
4:08 PM 46.4 °F 41.9 °F 42.8 °F 87% 30.07 in 10.0 mi NNW 9.2 mph - N/A   Overcast
4:56 PM 46.9 °F - 42.1 °F 83% 30.07 in 10.0 mi WNW 12.7 mph - N/A   Overcast
5:56 PM 46.9 °F - 42.1 °F 83% 30.08 in 10.0 mi NW 11.5 mph - N/A   Overcast
6:25 PM 46.4 °F 41.1 °F 42.8 °F 87% 30.08 in 10.0 mi NW 11.5 mph - N/A   Overcast
6:56 PM 46.9 °F - 42.1 °F 83% 30.08 in 10.0 mi NW 9.2 mph - N/A   Overcast
7:56 PM 48.0 °F - 42.1 °F 80% 30.09 in 10.0 mi Variable 6.9 mph - N/A   Overcast
8:56 PM 48.0 °F - 42.1 °F 80% 30.11 in 10.0 mi NNW 9.2 mph - N/A   Overcast
9:56 PM 46.9 °F - 42.1 °F 83% 30.13 in 10.0 mi NW 8.1 mph - N/A   Overcast
10:56 PM 46.9 °F - 43.0 °F 86% 30.15 in 10.0 mi WNW 8.1 mph - N/A   Overcast
11:56 PM 45.0 °F 41.2 °F 42.1 °F 90% 30.15 in 10.0 mi WNW 6.9 mph - N/A   Partly Cloudy